Flag for Germany Weather past 2 weeks in Ganderkesee, Lower Saxony, Germany

Now
63 °F

Scattered showers. Scattered clouds.


Feels Like: 63 °F
Forecast: 46 / 67 °F
Wind: 18 mph from West

Location: Bremen Airport

Current Time: Aug 20, 2014 at 1:30:11 PM

Latest Report: Aug 20, 2014 at 12:50 PM


Visibility: N/A

Pressure: 29.92 "Hg

Humidity: 56%

Dew point: 46 °F

Location of GanderkeseeLocation

Historic Weather in Ganderkesee — Graph

°F

Ganderkesee temperature yesterday

Maximum temperature yesterday: 63 °F (at 2:20 PM)
Minimum temperature yesterday: 50 °F (at 4:50 AM)
Average temperature yesterday: 54 °F

Past Weeks' High & Low Weather Summary

 TemperatureHumidityPressure
High79 °F (Aug 8, 5:20 PM)100% (Aug 7, 7:20 AM)30.09 "Hg (Aug 7, 7:20 AM)
Low48 °F (Aug 20, 6:20 AM)40% (Aug 13, 3:20 PM)29.53 "Hg (Aug 18, 6:20 AM)
Average62 °F76%29.81 "Hg
* Reported Aug 5 12:20 PM — Aug 20 12:20 PM, Ganderkesee, Weather by CustomWeather, © 2014

Note: Actual official high and low records may vary slightly from our data, if they occured in-between our weather recording intervals... More about our weather records

Advertising

Ganderkesee weather history for previous 24 hours

 ConditionsComfort  
Time TempWeatherWind HumidityBarometerVisibility
12:20 PM
Aug 20
63 °FScattered showers. Scattered clouds.17 mph59%29.92 "HgN/A
11:50 AM61 °FScattered clouds.18 mph59%29.92 "HgN/A
11:20 AM61 °FScattered clouds.17 mph63%29.92 "HgN/A
10:50 AM61 °FPassing clouds.21 mph68%29.92 "HgN/A
10:20 AM57 °FPassing clouds.21 mph77%29.89 "HgN/A
9:50 AM57 °FPassing clouds.18 mph77%29.89 "HgN/A
9:20 AM55 °FPassing clouds.16 mph82%29.89 "HgN/A
8:50 AM54 °FPassing clouds.16 mph88%29.89 "HgN/A
8:20 AM52 °FPassing clouds.14 mph88%29.89 "HgN/A
7:50 AM52 °FPassing clouds.14 mph88%29.86 "HgN/A
7:20 AM50 °FPassing clouds.14 mph94%29.86 "HgN/A
6:50 AM50 °FPassing clouds.13 mph88%29.86 "HgN/A
6:20 AM48 °FPassing clouds.13 mph94%29.86 "HgN/A
5:50 AM50 °FPassing clouds.15 mph94%29.86 "HgN/A
5:20 AM50 °FPassing clouds.13 mph94%29.86 "HgN/A
4:50 AM50 °FPassing clouds.14 mph94%29.83 "HgN/A
4:20 AM50 °FPassing clouds.14 mph94%29.83 "HgN/A
3:50 AM50 °FPassing clouds.14 mph94%29.83 "HgN/A
3:20 AM50 °FPassing clouds.13 mph94%29.83 "HgN/A
2:50 AM50 °FPassing clouds.13 mph94%29.83 "HgN/A
2:20 AM50 °FClear.13 mph94%29.83 "Hg10 mi
1:50 AM50 °FClear.14 mph94%29.83 "Hg10 mi
1:20 AM50 °FClear.14 mph94%29.83 "Hg10 mi
12:50 AM50 °FClear.16 mph94%29.80 "Hg10 mi
12:20 AM50 °FClear.15 mph94%29.80 "Hg10 mi
11:50 PM
Aug 19
50 °FClear.14 mph94%29.80 "Hg10 mi
11:20 PM50 °FClear.10 mph88%29.80 "Hg10 mi
10:50 PM50 °FClear.12 mph88%29.80 "Hg10 mi
10:20 PM50 °FPassing clouds.13 mph94%29.80 "HgN/A
9:50 PM52 °FPassing clouds.13 mph88%29.80 "HgN/A
9:20 PM54 °FPartly sunny.15 mph82%29.80 "HgN/A
8:50 PM54 °FPartly sunny.10 mph88%29.77 "HgN/A
8:20 PM52 °FPassing clouds.9 mph94%29.77 "HgN/A
7:50 PM54 °FScattered clouds.12 mph88%29.77 "HgN/A
7:20 PM52 °FSprinkles. Broken clouds.14 mph88%29.77 "HgN/A
6:50 PM57 °FScattered showers. Scattered clouds.14 mph77%29.74 "HgN/A
6:20 PM59 °FScattered clouds.16 mph72%29.74 "HgN/A
5:50 PM59 °FScattered clouds.16 mph72%29.74 "HgN/A
5:20 PM57 °FScattered clouds.17 mph77%29.74 "HgN/A
4:50 PM57 °FScattered clouds.13 mph77%29.71 "HgN/A
4:20 PM55 °FPartly sunny.13 mph77%29.71 "HgN/A
3:50 PM54 °FSprinkles. Broken clouds.13 mph88%29.74 "HgN/A
3:20 PM50 °FStrong thunderstorms. Broken clouds.32 mph88%29.74 "Hg1 mi
2:50 PM61 °FBroken clouds.15 mph63%29.71 "HgN/A
2:20 PM63 °FScattered clouds.16 mph68%29.71 "HgN/A
1:50 PM61 °FBroken clouds.16 mph72%29.71 "HgN/A
1:20 PM59 °FBroken clouds.16 mph77%29.74 "HgN/A
Weather by CustomWeather, © 2014

See weather overviewHow to use our weather pages